DW0756 Weather Reports


time (UTC)temp
C
wind
direction
speed
KPH
gust
KPH
rain 1hr
cm
rain 24hr
cm
rain mn
cm
humidity
%
barometer
mb
20260504081604 5 299 3.2 8.0 0.00 0.00 0.00
20260504081104 5 303 3.2 9.7 0.00 0.00 0.00
20260504080104 4 325 3.2 11.3 0.00 0.00 0.00
20260504060104 3 282 0.0 1.6 0.00 0.00 0.00
20260504050603 3 328 0.0 1.6 0.00 0.00 0.00
20260504045103 3 329 0.0 0.0 0.00 0.00 0.00
20260504044104 4 328 0.0 0.0 0.00 0.00 0.00
20260504043604 3 330 0.0 0.0 0.00 0.00 0.00
20260504043104 4 326 0.0 0.0 0.00 0.00 0.00
20260504042604 3 328 0.0 0.0 0.00 0.00 0.00
20260504042103 3 327 0.0 0.0 0.00 0.00 0.00
20260504040603 4 326 0.0 0.0 0.00 0.00 0.00
20260504035105 4 324 0.0 0.0 0.00 0.00 0.00
20260504033604 5 325 0.0 0.0 0.00 0.00 0.00
20260504033104 5 325 0.0 0.0 0.00 0.00 0.00
20260504032603 5 327 0.0 0.0 0.00 0.00 0.00
20260504031603 5 328 0.0 0.0 0.00 0.00 0.00
20260504030104 5 326 0.0 0.0 0.00 0.00 0.00
20260504024604 5 326 0.0 0.0 0.00 0.00 0.00
20260504023604 6 327 0.0 0.0 0.00 0.00 0.00
20260504023104 6 327 0.0 0.0 0.00 0.00 0.00
20260504022603 6 327 0.0 0.0 0.00 0.00 0.00
20260504021603 6 330 0.0 0.0 0.00 0.00 0.00
20260504015604 7 329 0.0 0.0 0.00 0.00 0.00
20260504015103 7 330 0.0 0.0 0.00 0.00 0.00
20260504014103 7 330 0.0 0.0 0.00 0.00 0.00
20260504013605 7 330 0.0 0.0 0.00 0.00 0.00
20260504012105 8 330 0.0 0.0 0.00 0.00 0.00
20260504011104 8 330 0.0 3.2 0.00 0.00 0.00
20260504010604 8 329 0.0 4.8 0.00 0.00 0.00
20260504010104 8 332 1.6 4.8 0.00 0.00 0.00
20260504005604 8 311 1.6 4.8 0.00 0.00 0.00
20260504005104 9 338 1.6 4.8 0.00 0.00 0.00
20260504003604 10 333 1.6 9.7 0.00 0.00 0.00
20260504000104 12 338 4.8 16.1 0.00 0.00 0.00
20260503234604 13 339 6.4 20.9 0.00 0.00 0.00
20260503233603 13 351 6.4 16.1 0.00 0.00 0.00
20260503232105 13 358 6.4 19.3 0.00 0.00 0.00
20260503231104 13 353 8.0 16.1 0.00 0.00 0.00
20260503230104 13 353 4.8 19.3 0.00 0.00 0.00
20260503225103 15 6 3.2 19.3 0.00 0.00 0.00
20260503224604 15 343 8.0 19.3 0.00 0.00 0.00
20260503223604 15 356 9.7 20.9 0.00 0.00 0.00
20260503223104 15 13 9.7 25.7 0.00 0.00 0.00
20260503221604 17 6 12.9 27.4 0.00 0.00 0.00
20260503215104 14 352 9.7 20.9 0.00 0.00 0.00
20260503214604 15 1 9.7 27.4 0.00 0.00 0.00
20260503214104 16 333 8.0 29.0 0.00 0.00 0.00
20260503213603 16 354 9.7 32.2 0.00 0.00 0.00
20260503212604 16 353 12.9 32.2 0.00 0.00 0.00
20260503212103 17 358 8.0 25.7 0.00 0.00 0.00
20260503211104 17 8 11.3 25.7 0.00 0.00 0.00
20260503205103 17 352 16.1 38.6 0.00 0.00 0.00
20260503204604 17 7 11.3 32.2 0.00 0.00 0.00
20260503203604 16 310 11.3 27.4 0.00 0.00 0.00
20260503203103 16 24 11.3 33.8 0.00 0.00 0.00
20260503202605 16 340 14.5 33.8 0.00 0.00 0.00
20260503202104 17 353 14.5 29.0 0.00 0.00 0.00
20260503201104 17 6 9.7 25.7 0.00 0.00 0.00
20260503195604 17 346 9.7 32.2 0.00 0.00 0.00
20260503195104 16 12 16.1 32.2 0.00 0.00 0.00
20260503194604 16 346 9.7 24.1 0.00 0.00 0.00
20260503194104 14 358 12.9 24.1 0.00 0.00 0.00
20260503193604 15 15 8.0 27.4 0.00 0.00 0.00
20260503192604 15 16 9.7 32.2 0.00 0.00 0.00
20260503191604 15 7 9.7 29.0 0.00 0.00 0.00
20260503184603 16 354 14.5 35.4 0.00 0.00 0.00
20260503183604 15 350 19.3 35.4 0.00 0.00 0.00
20260503182605 16 344 4.8 25.7 0.00 0.00 0.00
20260503182104 16 348 8.0 19.3 0.00 0.00 0.00
20260503180604 13 338 9.7 24.1 0.00 0.00 0.00
20260503180105 13 352 6.4 25.7 0.00 0.00 0.00
20260503175604 13 21 12.9 32.2 0.00 0.00 0.00
20260503175104 15 30 11.3 32.2 0.00 0.00 0.00
20260503174103 13 325 8.0 29.0 0.00 0.00 0.00
20260503173603 14 26 11.3 27.4 0.00 0.00 0.00
20260503172603 12 10 8.0 25.7 0.00 0.00 0.00
20260503172104 13 336 4.8 32.2 0.00 0.00 0.00
20260503171604 12 338 8.0 32.2 0.00 0.00 0.00
20260503170604 13 337 8.0 25.7 0.00 0.00 0.00
20260503160104 13 10 6.4 32.2 0.00 0.00 0.00
20260503130104 8 5 11.3 29.0 0.00 0.00 0.00